GEFSSE_con_cape1000_216.txt.gz
Probability
3 13 32 32 42 52 58 58 55 58 55 61 52 58 55 55 58 55 65 65 61 61 68 74 71 71 74 65 71 74 68 71 68 74 74 71 71 74 74 71 68 52 71
3 13 32 55 55 58 52 58 58 52 58 61 52 61 58 58 61 61 65 65 58 61 61 65 71 71 68 74 74 71 65 61 68 71 68 61 68 74 68 58 65 58 77
6 16 26 52 58 55 58 61 58 52 55 61 55 55 65 55 52 61 65 61 55 55 61 61 68 65 65 65 71 68 71 77 68 61 65 39 48 65 65 61 71 77 71
10 19 29 55 58 52 58 55 61 58 61 61 65 65 65 58 55 55 52 58 55 55 55 61 61 58 52 65 52 61 68 65 55 48 29 19 16 45 65 65 65 65 65
13 19 45 58 61 58 61 55 58 65 65 58 65 68 68 58 55 61 48 52 58 61 58 52 55 48 52 52 55 58 65 52 45 29 19 26 48 58 52 58 61 48 61
13 23 35 61 71 74 61 58 55 58 58 65 71 71 65 65 65 61 58 48 52 52 52 48 45 45 45 48 45 52 55 45 32 13 23 26 42 55 58 52 55 48 68
13 19 32 58 68 77 68 65 71 71 58 71 61 65 61 58 55 58 55 58 55 48 45 42 45 42 45 35 42 52 48 45 23 16 29 32 55 71 55 61 58 58 55
6 13 29 68 74 74 74 65 71 77 71 65 65 61 61 68 68 61 48 52 48 52 45 42 42 45 32 29 39 55 55 48 13 3 16 26 55 74 65 65 65 55 58
10 13 32 32 55 68 68 74 71 74 71 68 65 65 65 65 52 48 52 45 42 35 32 32 39 42 32 35 45 55 42 32 13 16 10 29 55 81 68 65 58 52 52
19 19 32 29 48 55 65 81 74 71 77 68 65 65 65 58 55 55 48 42 39 39 32 29 35 32 39 42 52 58 35 32 16 23 23 29 81 84 71 61 65 58 55
23 23 19 26 42 45 45 61 71 71 74 68 65 55 55 55 48 42 35 35 35 32 35 35 32 26 29 26 39 42 32 29 16 13 29 35 77 71 74 71 61 61 55
26 19 29 19 26 29 32 58 68 58 68 74 71 61 65 68 61 35 39 35 32 35 48 42 32 19 16 23 39 35 26 19 23 23 35 58 65 71 74 74 65 74 65
29 26 26 19 29 39 48 58 55 52 68 58 61 52 71 48 45 32 42 48 61 45 35 42 26 23 16 26 32 32 23 19 19 10 19 68 68 68 68 74 71 77 77
29 26 29 29 42 58 48 52 52 55 52 45 65 55 42 48 48 39 58 48 58 55 52 32 39 23 26 26 26 29 35 23 13 6 61 65 77 77 71 71 68 71 74
32 29 35 48 71 77 81 68 52 58 45 45 52 55 45 48 29 29 52 42 32 35 45 45 32 26 26 23 19 26 26 19 10 10 45 65 68 81 77 74 65 71 68
39 39 48 58 74 81 84 84 71 52 74 42 45 42 39 48 48 45 42 58 32 35 32 42 32 42 45 42 29 19 19 13 26 35 35 58 68 71 74 74 74 68 58
45 55 61 65 74 74 74 61 61 55 45 55 45 55 61 58 65 55 45 52 39 45 55 52 39 32 52 39 35 26 26 23 23 29 32 52 55 65 74 71 81 77 68
55 74 84 48 61 87 84 77 55 55 55 58 61 61 61 58 58 81 55 45 55 48 55 61 45 45 42 48 45 42 35 39 32 39 39 45 58 45 68 71 74 77 77
68 84 81 74 74 84 87 84 81 84 77 68 68 65 61 55 55 55 68 71 55 61 61 55 52 48 58 58 35 42 45 39 45 39 32 42 55 58 58 77 74 74 71
74 87 87 87 90 90 87 90 81 81 74 71 71 77 68 68 58 58 65 68 58 71 68 74 71 74 74 74 23 26 42 42 52 55 45 39 58 58 52 52 61 61 68
77 87 90 87 90 94 87 77 81 81 74 71 65 71 74 71 68 77 65 74 65 68 68 58 68 65 55 68 45 45 52 45 45 48 52 45 39 42 52 52 65 68 68
87 87 90 90 90 90 94 90 90 81 71 71 68 87 71 81 77 68 68 74 74 90 77 77 77 61 45 52 48 42 42 48 65 26 52 58 45 52 45 45 58 74 74
74 87 81 90 90 90 90 84 81 84 77 77 81 81 81 90 81 77 81 74 77 71 71 84 81 71 61 55 48 52 42 35 23 26 39 45 58 58 42 39 52 68 65
74 81 87 90 90 90 90 81 81 84 84 81 84 87 84 90 84 84 84 84 77 81 90 71 55 65 77 68 68 71 55 48 39 16 26 29 39 61 48 32 35 61 58
71 77 87 90 90 90 90 90 90 87 90 84 87 84 87 90 84 84 84 87 90 84 87 87 81 84 71 65 65 58 52 58 42 42 32 39 42 42 42 48 48 48 65
74 81 84 90 94 94 90 87 94 90 90 90 90 90 90 87 87 84 84 87 84 84 81 84 77 74 74 74 77 55 48 48 45 48 39 45 58 42 42 48 48 42 48

GEFSSE_con_cape1000_222.txt.gz
Probability
13 19 52 39 39 48 48 45 48 48 45 45 48 52 48 52 65 71 71 68 61 68 74 71 71 65 65 65 65 74 68 68 68 71 65 68 71 71 77 74 65 58 81
13 23 48 48 45 48 45 45 58 48 42 42 42 61 55 58 61 68 68 61 58 61 61 68 68 61 61 65 74 71 65 65 65 65 68 61 58 74 74 71 68 61 74
16 23 39 52 52 52 52 52 52 61 55 45 39 52 58 58 55 61 55 65 55 58 58 58 61 55 61 68 65 68 61 65 58 65 61 42 68 74 81 71 68 65 65
13 13 29 52 55 52 55 55 58 61 61 45 52 48 55 45 48 55 52 55 55 52 48 52 48 45 52 58 58 55 55 52 61 65 35 23 19 68 74 71 71 68 68
16 19 39 52 52 52 45 55 58 65 65 58 52 52 48 42 42 45 45 58 52 45 45 45 42 48 55 45 48 48 58 42 45 42 26 29 26 71 71 71 68 65 58
16 16 39 58 61 55 45 52 52 55 68 58 48 48 42 35 39 35 45 52 45 42 45 42 39 42 35 35 42 45 45 48 52 26 35 19 32 68 68 61 58 55 55
16 19 32 55 65 55 48 48 55 52 61 52 52 48 42 42 48 45 39 42 45 45 42 39 39 35 29 35 42 48 45 42 42 32 35 32 52 77 65 61 55 48 52
19 23 39 71 65 52 48 48 48 52 58 61 55 55 58 48 45 48 48 45 39 42 39 39 35 26 29 32 48 42 48 39 23 19 39 39 65 77 71 68 65 65 45
16 26 26 39 52 48 55 52 61 58 61 65 68 68 65 58 48 45 48 52 32 39 35 32 29 23 26 35 42 42 39 42 35 23 23 32 68 77 61 61 61 55 48
16 19 26 23 29 39 39 55 58 58 65 68 68 58 58 48 48 45 42 52 35 32 29 26 23 26 29 29 39 45 48 45 23 13 16 39 84 81 55 52 58 42 48
13 23 16 10 26 19 29 35 58 68 68 71 68 68 58 48 42 35 32 45 39 35 32 32 26 32 39 32 39 42 32 19 19 16 19 58 87 81 58 52 58 52 42
16 16 26 26 26 26 26 55 71 58 61 74 71 65 55 61 48 35 52 48 45 48 35 35 35 35 26 16 32 42 10 19 13 19 19 81 81 74 65 65 68 58 55
26 35 23 29 39 42 48 58 68 81 77 74 81 71 65 55 55 32 32 42 48 39 32 35 32 19 29 39 39 32 35 23 19 23 29 87 77 77 61 52 65 58 52
39 26 32 45 58 77 77 74 81 81 68 65 81 74 77 74 68 58 61 58 61 52 65 42 45 42 55 48 39 48 35 35 32 35 55 84 84 81 71 61 58 65 55
42 39 45 65 87 81 84 84 65 77 71 68 84 77 77 74 71 71 68 74 58 68 65 61 61 61 55 39 42 39 35 35 42 35 48 74 87 84 81 65 65 74 68
55 61 65 77 87 84 84 87 84 74 81 68 77 84 77 74 77 77 77 77 71 68 65 71 71 71 61 68 55 52 39 35 61 65 48 65 81 90 87 74 68 68 65
65 77 77 77 84 87 84 84 81 77 52 68 74 77 74 74 77 81 81 81 77 77 74 77 77 74 68 65 65 61 52 58 58 71 65 52 55 74 87 87 81 81 68
68 87 81 58 81 90 87 84 84 77 81 84 81 77 77 77 81 81 81 77 84 81 81 74 71 74 74 74 71 65 58 68 61 71 68 65 58 42 58 77 87 81 74
90 90 87 87 94 94 90 90 97 94 87 90 87 81 81 74 81 81 77 84 84 74 81 68 74 81 71 71 71 68 71 74 71 61 61 61 65 65 52 58 81 81 68
90 90 87 90 94 94 94 94 97 94 94 90 90 87 87 84 77 84 77 81 87 84 84 77 77 81 74 77 45 48 68 71 74 68 68 58 68 65 52 52 52 61 68
90 90 90 94 94 90 90 94 94 90 97 94 87 84 87 90 87 87 71 81 87 84 81 77 77 77 81 77 68 65 68 61 58 68 68 61 61 68 68 68 61 52 35
90 94 90 94 94 94 90 94 94 94 97 94 87 90 87 84 87 77 90 87 87 90 90 87 81 74 77 74 81 65 65 55 52 42 58 65 65 61 65 52 61 68 61
84 94 87 94 94 94 94 94 90 90 90 90 90 94 94 94 84 90 90 90 87 87 90 87 84 77 71 71 77 71 61 58 61 58 52 58 58 65 65 68 68 61 55
77 84 94 94 94 94 94 90 90 90 90 90 90 94 90 90 90 90 87 90 90 90 84 84 84 77 84 84 84 87 81 81 61 48 52 52 55 52 58 42 39 55 52
71 74 87 90 90 90 90 90 90 90 90 90 90 90 90 87 90 90 90 94 90 90 90 87 81 84 84 84 84 77 74 84 77 68 52 61 55 58 58 68 42 55 55
71 81 87 90 90 90 87 84 90 90 90 90 90 90 90 90 90 90 87 87 90 90 90 87 81 84 84 81 77 77 81 74 71 52 48 48 55 55 55 55 52 52 52

GEFSSE_con_cape1000_228.txt.gz
Probability
6 26 55 61 58 58 58 58 65 68 68 65 61 65 77 71 84 81 81 84 84 81 74 74 68 68 71 74 77 84 81 87 77 77 77 77 77 81 81 81 74 71 90
10 29 48 61 68 65 58 58 68 68 68 71 71 68 65 68 77 77 71 74 77 77 74 71 71 68 65 65 71 77 74 74 77 74 65 68 74 77 71 71 71 68 81
13 23 42 58 61 58 61 65 74 61 68 74 68 65 65 68 71 71 71 74 74 74 74 68 74 65 68 68 68 68 65 65 74 77 65 45 55 71 74 71 71 77 71
16 19 35 58 65 58 58 68 71 68 74 71 61 58 58 61 65 65 71 71 68 68 65 68 65 61 65 65 65 61 61 61 58 58 19 26 32 71 74 71 68 68 68
16 19 35 58 61 65 65 65 71 71 74 71 58 61 58 61 58 61 71 68 68 68 68 58 55 55 55 55 52 55 55 45 52 19 10 10 26 74 74 71 68 68 65
16 23 35 58 58 61 58 68 68 68 74 71 68 61 58 61 58 61 61 61 68 61 58 55 45 48 35 35 45 45 55 52 29 6 0 0 29 81 77 74 65 61 61
10 23 45 58 65 65 65 68 65 68 68 65 61 55 61 61 55 55 55 65 58 55 58 48 42 32 32 35 35 42 45 42 10 0 0 3 35 77 77 81 65 68 61
16 23 35 65 68 68 68 61 71 68 68 65 65 61 65 61 58 61 61 61 58 52 48 48 45 39 39 32 39 48 52 42 19 6 3 3 48 77 74 68 71 71 68
16 23 29 32 45 65 68 74 65 68 68 71 65 61 58 58 55 58 52 61 52 45 42 42 35 42 42 42 42 52 35 32 13 10 10 16 61 71 68 65 61 68 68
10 13 26 19 23 29 42 68 74 68 68 68 65 65 52 48 48 45 55 52 52 48 39 39 39 39 45 52 52 42 29 23 6 3 6 29 74 68 68 71 58 65 65
10 6 10 10 10 13 23 48 61 65 65 58 61 65 48 23 13 39 39 52 42 35 32 29 35 42 48 52 48 45 32 10 0 3 0 35 68 65 68 71 68 61 65
3 3 3 13 3 6 13 26 35 35 32 32 26 32 13 6 6 19 48 48 48 45 32 39 39 42 35 10 6 26 3 6 0 3 10 58 74 65 65 68 74 58 68
3 6 6 6 6 3 0 6 10 10 13 13 13 19 16 10 10 10 10 23 32 32 13 23 35 23 13 3 3 0 0 3 0 0 10 58 77 71 68 71 68 55 58
3 6 6 3 3 0 3 6 6 10 10 10 10 13 6 13 6 3 3 6 10 6 3 3 10 6 0 3 0 0 3 0 0 0 3 74 84 84 77 77 74 58 58
6 10 10 6 6 3 3 6 13 6 6 6 10 10 13 10 13 3 3 10 10 10 13 6 3 0 0 0 0 0 0 0 0 0 3 74 81 84 87 81 71 68 58
16 13 16 13 10 10 6 13 10 10 6 6 13 13 13 16 10 6 10 3 6 6 6 13 6 6 3 3 0 3 0 0 3 3 3 48 84 84 90 90 77 71 71
16 16 13 16 13 16 16 16 13 10 10 10 13 13 13 13 6 6 6 3 3 6 10 6 3 0 6 3 0 3 0 0 3 3 3 10 35 77 84 84 84 84 74
16 23 26 29 29 19 13 19 13 10 10 10 13 13 13 10 13 10 10 13 10 10 10 3 0 0 0 3 3 0 0 3 3 3 0 6 3 23 61 84 87 81 77
19 16 19 29 29 16 19 23 19 13 13 13 10 10 13 13 16 19 19 19 13 10 6 13 6 6 3 3 0 0 0 3 3 6 6 3 0 0 3 42 87 84 74
23 19 19 26 29 29 32 29 29 26 13 13 13 10 16 13 19 13 16 10 10 10 10 13 10 3 3 0 10 10 3 6 3 3 3 3 3 6 3 13 26 52 77
29 19 26 35 29 35 29 29 29 29 26 23 16 19 16 26 32 23 23 10 13 16 10 16 16 10 3 6 3 3 3 0 6 3 6 10 10 13 6 6 6 6 23
42 32 39 35 32 32 29 29 29 26 26 26 29 29 23 26 29 39 19 19 19 13 10 13 6 10 3 3 3 0 0 0 3 10 6 6 3 3 10 10 3 10 10
42 39 42 42 42 42 39 39 39 29 32 29 29 39 32 26 29 26 26 19 16 13 13 16 19 13 13 6 3 0 0 0 3 0 6 6 6 3 6 6 10 10 13
39 45 45 45 45 45 48 45 35 35 39 29 26 35 35 35 39 39 29 26 19 16 16 13 19 23 16 16 10 3 3 3 0 0 0 0 3 3 3 6 13 13 13
42 42 42 48 55 48 45 48 39 32 23 23 32 39 39 35 39 45 39 29 23 13 13 19 19 16 16 16 16 10 3 3 0 0 0 0 0 3 3 3 3 3 13
55 61 55 48 58 52 52 48 35 35 39 42 45 42 32 35 39 42 42 32 35 26 16 19 19 16 16 19 16 13 3 3 3 3 3 0 0 0 6 6 6 3 3

GEFSSE_con_cape1000_234.txt.gz
Probability
0 10 45 61 61 61 58 65 65 68 68 65 65 77 74 77 87 84 87 87 87 84 87 87 84 81 84 84 77 81 84 77 81 81 81 77 77 84 87 84 81 68 84
3 16 45 58 61 61 68 84 71 58 71 68 61 68 77 84 81 77 81 84 84 87 84 81 84 81 84 84 77 74 77 77 74 84 68 74 74 81 77 81 71 74 81
10 16 39 55 52 61 71 74 71 74 71 71 74 68 74 74 77 77 74 81 84 81 81 81 74 71 71 71 74 74 84 81 77 71 68 52 61 77 71 68 74 74 71
13 13 23 55 52 58 61 65 65 74 77 77 74 71 77 71 74 84 81 81 81 81 84 74 68 68 71 71 71 74 81 71 74 61 39 42 58 68 68 71 68 68 68
10 13 32 52 55 65 68 68 74 74 77 77 74 77 81 74 74 81 77 77 77 74 68 65 65 68 71 58 65 68 71 71 65 26 19 32 52 71 71 74 71 55 55
10 13 29 55 58 65 61 71 71 74 74 77 74 77 77 65 65 68 68 71 68 68 61 55 55 58 58 55 55 58 65 65 35 0 0 13 42 68 68 71 58 55 55
10 10 26 42 55 61 65 58 61 68 71 65 71 77 77 68 77 65 74 68 61 61 55 48 52 39 52 52 58 58 58 58 13 3 0 19 42 74 74 65 65 61 61
10 10 29 45 58 58 65 58 58 65 65 65 61 71 74 74 68 58 61 61 55 52 45 48 39 39 48 52 55 58 58 29 6 0 6 16 48 77 74 68 68 65 58
10 16 26 35 42 52 61 65 68 65 68 65 71 68 68 61 61 61 65 55 39 42 39 35 39 35 45 55 55 58 52 32 10 13 3 23 61 65 68 65 61 65 55
3 16 16 19 23 32 39 55 68 68 61 68 61 68 65 55 48 45 48 48 42 35 35 35 35 32 45 48 48 48 42 23 6 0 6 23 58 52 58 55 61 65 58
3 3 10 10 10 16 32 48 48 58 61 58 52 65 35 16 19 29 39 45 42 39 39 39 42 48 45 48 45 42 23 10 10 3 6 32 58 48 55 61 61 58 52
3 3 3 3 10 13 29 26 23 35 32 19 19 19 16 6 10 16 35 35 35 45 45 42 45 39 19 16 16 26 6 6 3 6 6 45 58 55 61 65 61 61 55
3 3 6 3 6 6 13 10 10 10 13 13 13 10 10 3 6 6 13 16 23 29 23 23 23 16 10 3 3 6 6 3 10 10 13 52 68 61 55 58 55 55 58
3 3 6 6 6 3 0 6 6 10 10 10 10 10 6 3 3 3 6 10 3 3 10 10 6 3 0 0 0 0 0 0 0 3 6 42 74 68 58 65 65 42 52
0 3 3 6 6 0 0 3 6 6 10 10 6 6 6 6 3 6 3 3 3 3 3 3 3 3 0 0 0 3 3 3 3 3 6 35 65 77 65 71 68 52 45
0 3 3 0 0 0 0 0 3 6 6 6 6 6 6 6 3 3 3 3 3 3 3 6 6 6 0 0 0 0 0 0 3 3 10 19 65 81 81 71 71 68 58
3 0 3 0 0 0 0 0 0 3 3 3 3 3 3 6 6 3 3 3 3 3 3 3 3 3 0 0 0 3 3 10 10 13 13 16 35 61 90 90 90 77 71
3 0 3 6 3 0 0 0 0 0 3 3 3 3 3 6 6 3 3 3 3 3 3 3 3 6 6 0 0 3 6 6 6 10 3 6 13 13 48 77 94 90 84
6 6 3 6 6 6 3 3 3 6 3 3 3 3 6 10 6 6 3 3 3 3 6 6 6 6 3 3 3 6 3 0 3 3 0 0 6 13 19 35 77 84 81
10 6 10 6 6 6 6 6 6 6 6 6 6 6 10 16 13 10 6 6 6 6 10 6 3 3 6 3 6 3 3 3 3 3 3 0 6 3 10 16 32 45 68
13 13 10 10 10 6 10 6 6 10 10 6 10 10 13 13 13 6 10 3 3 10 6 6 6 6 6 3 6 3 3 0 0 0 0 0 0 10 13 13 16 16 26
10 10 10 6 10 10 10 6 6 10 10 13 10 6 10 13 10 10 3 3 3 6 3 3 6 6 6 3 3 10 3 3 3 0 3 6 0 6 10 6 19 23 19
10 10 10 10 10 10 13 10 10 10 16 16 16 13 10 13 13 13 10 6 3 6 6 6 10 3 3 6 6 10 10 6 0 0 0 3 6 10 10 13 16 13 13
10 10 6 6 10 10 13 16 16 19 19 19 13 16 16 16 19 16 16 6 3 6 10 13 3 3 3 3 10 6 10 10 3 6 0 0 0 10 10 6 10 6 10
16 16 13 6 10 10 16 16 13 13 13 10 13 16 16 16 26 26 23 16 16 10 13 6 6 3 6 6 6 6 6 6 6 3 6 3 3 0 10 6 10 6 6
16 13 16 13 10 26 23 19 16 10 13 13 16 19 16 19 26 32 35 26 16 13 6 6 6 6 6 6 6 6 6 6 6 3 6 6 3 3 3 6 6 10 3

GEFSSE_con_cape1000_240.txt.gz
Probability
6 16 39 42 55 58 74 68 68 71 71 74 71 74 74 71 87 84 84 87 90 87 87 84 74 81 94 90 81 81 77 74 74 77 77 81 81 84 84 81 74 58 81
6 13 39 45 55 58 71 74 71 71 71 71 71 68 71 74 74 81 84 84 81 87 84 77 77 87 90 90 81 77 77 81 77 71 74 74 74 74 74 65 71 71 81
6 10 35 45 48 58 68 71 68 68 65 65 68 71 74 74 77 74 81 74 77 81 77 74 77 84 81 87 81 74 74 71 77 68 58 61 65 74 71 71 74 71 71
6 13 26 48 48 55 68 65 71 65 68 65 68 74 71 74 77 74 71 74 81 74 71 71 77 77 68 81 77 71 65 68 74 65 42 39 35 65 68 68 71 68 68
10 16 32 48 45 52 58 77 68 68 71 68 71 74 71 71 74 68 71 71 77 71 74 74 74 65 77 71 68 68 71 58 58 42 19 45 48 68 74 68 65 65 65
10 10 19 45 45 48 65 61 65 65 65 68 68 68 74 71 68 65 71 74 74 71 61 61 52 45 55 65 71 68 68 61 26 13 26 42 61 68 71 58 58 58 58
13 13 16 35 35 48 55 61 68 65 68 61 68 71 68 65 68 71 68 68 68 65 52 45 42 45 55 52 55 55 45 29 19 10 29 39 65 77 65 68 61 55 52
10 10 16 35 35 42 71 68 61 68 61 61 61 71 71 68 65 68 68 58 55 48 42 35 42 42 52 52 52 52 32 23 10 3 13 26 55 71 77 74 68 58 48
6 13 13 29 32 45 58 61 65 68 65 61 77 74 74 68 55 58 52 55 52 45 45 42 45 42 55 58 55 52 42 29 19 10 6 19 58 65 68 71 68 61 58
10 13 23 19 23 26 45 58 61 58 55 58 71 65 68 55 48 48 52 45 45 48 42 42 42 39 45 48 58 58 48 29 10 16 16 23 48 58 55 68 68 65 55
10 16 19 16 23 26 29 35 48 55 52 61 65 58 65 58 42 45 35 45 45 39 39 45 35 39 39 48 48 45 32 23 16 10 23 29 48 45 45 55 65 58 48
10 10 29 26 26 19 13 35 42 32 48 52 65 52 55 55 52 32 32 39 42 39 39 39 42 35 16 10 19 13 23 19 6 10 19 45 55 48 48 48 55 52 45
10 10 10 19 26 26 29 39 45 55 68 55 48 42 48 39 32 35 39 48 45 29 32 26 29 23 13 13 13 10 13 6 13 10 19 45 52 52 55 58 58 52 48
13 13 13 19 29 29 32 35 35 32 35 52 58 45 42 48 42 32 48 42 39 39 35 23 29 23 13 13 10 13 16 19 16 13 42 45 58 65 52 55 58 48 52
16 26 29 26 42 52 65 32 23 23 13 19 52 39 32 26 29 26 45 48 39 35 32 35 26 23 19 16 13 13 16 26 23 16 26 52 55 65 48 48 55 55 52
19 26 29 32 45 65 65 55 32 19 39 16 32 23 29 29 26 29 42 52 42 42 26 29 23 35 35 23 23 29 26 23 32 39 19 48 65 65 61 55 58 55 58
29 32 39 39 45 61 55 35 29 29 26 16 26 35 32 29 35 39 39 42 42 45 42 45 35 29 39 29 35 29 26 26 26 45 35 35 58 65 68 68 61 61 61
35 52 48 23 39 58 58 58 39 35 35 35 39 42 42 42 45 61 48 42 48 32 42 42 39 32 39 45 42 39 42 48 42 48 39 48 55 48 77 77 74 74 65
55 58 68 55 58 58 65 71 52 61 61 55 48 48 55 52 48 52 61 55 58 39 39 39 39 42 45 48 35 52 39 42 45 29 35 42 52 61 61 84 74 81 71
52 68 74 77 81 74 65 81 77 71 71 58 52 65 58 58 61 58 68 65 55 45 52 55 55 68 65 61 32 35 35 42 42 42 42 45 42 42 48 58 74 74 74
52 71 74 68 84 84 71 71 71 68 71 65 71 71 68 68 71 77 52 77 74 55 68 48 68 61 58 58 45 35 32 32 29 55 55 45 32 42 52 58 58 58 71
55 71 81 81 77 81 81 84 84 68 58 65 61 74 71 74 68 61 74 68 71 71 71 71 71 58 48 52 45 29 29 35 45 23 42 45 45 48 45 45 52 58 58
55 65 61 81 84 84 81 71 77 84 74 58 68 71 68 65 74 74 71 68 71 68 68 71 74 71 55 52 48 29 26 32 35 29 39 45 58 58 48 45 52 52 61
65 65 74 87 87 90 87 71 74 74 65 71 68 71 68 65 65 61 65 65 65 61 74 65 58 68 68 45 52 55 42 35 29 29 35 29 48 58 55 32 35 55 61
55 61 71 87 87 87 87 87 90 74 71 68 65 77 71 71 65 61 61 68 65 68 65 61 71 68 65 55 45 45 39 39 35 29 35 39 35 35 42 39 29 39 45
55 61 68 87 84 84 84 84 87 90 87 84 77 71 65 68 68 61 61 65 68 65 71 68 68 68 71 65 58 48 52 45 39 35 35 55 42 29 35 39 35 39 39

GEFSSE_con_cape1000_246.txt.gz
Probability
29 32 65 61 65 58 71 74 65 71 74 77 77 77 74 77 74 77 84 90 87 87 87 90 87 84 90 84 81 87 87 87 81 87 87 84 77 81 81 77 68 71 84
29 32 55 61 58 61 68 71 71 74 74 74 74 77 77 81 81 77 84 87 87 84 81 87 90 84 81 81 81 84 81 77 77 77 84 77 81 77 74 74 81 71 81
23 26 45 58 55 58 55 61 68 71 71 71 71 74 81 77 77 81 84 81 84 77 71 77 81 84 84 81 84 77 74 71 77 74 74 42 68 74 74 71 77 77 74
19 26 35 55 58 58 65 68 68 65 68 71 71 74 81 84 84 84 81 77 74 71 68 74 71 71 74 77 77 77 74 68 68 71 45 39 45 61 68 71 71 71 65
23 26 45 55 61 61 61 61 68 65 68 71 71 74 71 81 84 81 74 68 68 55 65 65 61 65 68 71 65 65 68 68 65 61 26 45 55 58 65 65 61 61 61
26 26 39 65 61 61 58 58 65 65 71 71 68 68 68 68 71 71 68 65 61 61 55 61 65 58 55 61 55 45 61 65 61 32 42 42 55 74 61 58 58 58 61
16 19 32 52 58 55 58 61 61 65 68 68 61 68 71 71 68 68 65 61 71 58 48 55 55 52 52 48 48 45 48 45 32 32 48 58 65 77 71 61 52 48 48
19 23 29 55 52 55 58 65 65 71 65 61 65 61 65 71 65 68 65 65 55 52 45 42 42 45 45 45 39 45 48 32 16 16 42 48 77 81 74 61 61 58 48
6 26 29 26 45 65 65 65 71 68 68 65 65 65 65 58 65 61 65 61 55 52 45 35 39 32 42 42 48 48 52 52 35 16 10 39 74 81 68 61 55 58 58
10 16 26 32 32 29 42 55 55 65 65 68 71 71 71 58 58 58 58 58 48 32 35 29 29 32 48 45 55 58 48 55 29 10 13 39 81 77 77 61 61 55 48
13 16 19 23 26 29 29 32 52 65 77 71 71 74 58 48 42 48 48 58 45 32 26 29 29 35 42 48 48 55 45 26 16 23 19 58 68 71 68 71 65 61 48
10 19 23 26 19 23 26 39 48 39 65 58 58 58 48 55 55 45 52 58 52 39 32 35 39 35 32 19 26 42 19 19 23 32 26 68 68 61 65 65 61 55 48
16 16 13 19 23 16 29 35 48 55 55 58 61 61 61 55 42 39 35 45 48 42 35 39 39 19 23 23 26 19 19 16 23 19 29 77 68 65 61 58 61 58 48
16 13 19 29 35 39 35 35 48 48 55 55 61 55 45 52 48 45 55 45 48 39 39 32 32 42 32 32 29 23 16 16 26 29 45 77 74 71 61 58 65 58 52
26 26 32 42 58 58 71 65 32 48 39 39 61 58 52 32 45 39 55 48 42 52 48 48 48 48 45 32 29 29 32 26 26 29 35 74 81 77 74 71 61 61 52
32 42 45 52 55 65 68 68 55 35 61 48 58 45 58 58 58 48 61 55 58 52 52 52 52 55 55 48 42 39 39 39 39 42 32 55 74 84 74 74 65 61 55
58 52 61 58 65 68 58 52 45 42 29 55 58 68 58 65 71 65 61 68 58 55 55 52 45 52 58 52 52 52 48 52 45 48 42 39 52 77 81 81 81 74 61
65 81 77 52 68 71 71 68 58 48 52 61 61 61 65 71 74 71 71 65 65 55 55 58 52 55 55 55 55 52 52 58 52 61 45 58 45 42 68 81 81 81 68
81 87 84 77 74 77 71 77 71 71 68 68 65 65 71 68 65 71 74 74 68 61 65 58 61 61 55 58 58 58 55 55 55 42 52 55 61 58 55 65 84 84 71
87 90 87 84 87 84 81 77 77 74 74 74 68 77 77 71 71 77 74 71 65 68 65 68 68 65 65 71 45 42 52 48 48 52 58 58 65 68 65 58 65 65 81
84 94 90 87 87 87 81 81 77 81 77 81 77 77 84 77 77 77 74 74 68 71 68 61 61 65 61 71 58 52 52 52 48 55 55 58 61 65 65 68 58 52 52
87 90 94 94 90 87 87 87 81 84 77 74 77 77 71 74 77 71 77 74 71 71 74 71 71 68 65 65 65 52 42 52 65 39 58 65 68 68 65 58 74 74 61
81 90 87 90 94 94 94 90 84 90 81 74 77 74 74 71 77 77 81 77 71 71 71 71 74 74 68 68 65 52 45 52 52 58 58 65 65 68 65 71 65 65 68
71 87 94 97 97 97 94 87 84 81 77 81 77 81 77 74 77 74 74 71 71 68 71 71 74 74 71 65 61 71 65 58 55 55 48 48 55 61 68 52 52 68 68
68 74 87 97 97 97 97 94 90 84 84 84 81 87 77 77 77 77 71 74 77 71 71 74 77 74 71 58 65 68 61 68 55 55 45 42 45 52 55 65 61 58 65
61 74 87 94 97 90 90 94 94 90 90 87 90 84 84 84 84 84 74 77 74 77 77 81 77 71 74 74 74 71 71 58 61 55 55 55 45 45 58 65 52 55 55

GEFSSE_con_cape1000_252.txt.gz
Probability
16 35 74 77 74 81 81 81 81 90 84 87 84 87 87 90 94 94 94 94 90 90 87 87 94 87 94 90 94 94 97 97 90 90 90 87 81 84 87 87 87 81 90
16 42 68 71 68 77 81 81 77 81 87 87 84 84 84 87 94 90 94 94 90 87 84 90 87 90 94 94 94 94 90 90 87 87 87 81 81 84 84 81 71 77 84
23 39 55 71 74 77 74 74 87 81 74 81 81 81 81 81 84 87 97 97 90 84 90 90 90 87 87 87 90 87 90 87 87 81 65 45 71 84 84 81 81 81 74
23 26 42 68 71 77 81 71 74 77 71 77 81 81 81 81 84 84 87 90 87 84 81 87 90 84 87 81 84 84 81 81 84 65 32 32 39 77 81 77 77 68 71
23 26 48 71 65 71 77 74 74 74 71 71 74 81 81 81 84 84 84 87 84 74 71 71 81 74 71 81 81 81 81 77 74 29 10 19 32 65 74 74 71 65 58
16 26 45 65 61 68 74 74 74 71 74 71 77 81 81 81 84 84 84 87 84 74 61 68 68 68 61 58 68 68 68 65 39 10 10 16 35 65 71 65 65 55 55
16 19 42 65 68 71 71 71 71 74 74 74 74 77 81 77 84 84 77 84 65 68 61 55 58 48 55 52 48 52 65 55 16 10 6 13 39 65 74 74 58 58 65
10 23 42 65 68 71 68 68 61 65 71 81 84 81 84 87 84 81 71 61 55 48 52 52 52 48 48 55 58 65 58 39 19 13 10 10 55 81 74 68 68 58 52
13 23 26 42 52 68 68 65 71 71 77 77 84 87 87 87 81 77 74 55 55 48 45 42 42 45 52 55 55 52 55 52 13 10 10 16 71 87 71 65 65 61 58
10 13 19 23 29 32 52 65 65 71 74 77 84 84 77 84 74 71 71 65 45 42 39 39 35 45 52 55 55 58 58 35 13 10 6 35 84 77 58 58 65 58 58
13 6 6 13 16 19 29 55 65 61 74 81 71 74 65 35 35 48 45 58 48 39 39 35 32 45 55 52 48 55 42 10 6 6 6 55 87 74 68 58 65 58 65
6 6 3 3 6 13 19 23 26 32 35 26 32 32 23 13 19 23 48 55 48 42 45 45 45 52 39 13 16 29 13 6 3 6 6 65 87 81 68 74 68 55 58
6 6 3 3 6 10 6 10 16 16 16 19 19 13 10 6 0 19 19 35 29 35 23 32 29 19 16 6 3 3 3 3 3 6 10 74 77 71 74 74 65 61 58
6 6 6 6 6 10 6 13 13 6 10 10 3 10 3 3 3 3 10 13 16 13 10 10 10 13 10 3 3 6 3 3 3 10 10 74 74 71 77 71 61 55 52
6 6 6 10 10 13 6 10 13 10 10 6 6 6 3 3 3 0 10 10 6 6 6 6 10 6 6 3 6 6 3 3 6 10 10 61 71 77 77 77 65 61 61
10 10 10 13 13 10 6 6 10 10 6 10 6 6 6 3 3 3 3 3 3 3 6 10 10 3 3 3 6 6 6 6 6 6 10 29 74 81 74 77 74 71 68
10 10 10 13 10 10 6 6 6 6 10 6 6 10 6 6 3 3 3 6 3 3 3 6 3 3 6 10 10 6 6 6 6 6 6 6 39 71 77 77 81 81 77
10 16 19 19 13 10 6 6 6 6 6 16 10 10 6 6 6 6 6 6 3 6 6 6 10 13 10 6 3 3 3 3 3 3 6 10 10 16 58 68 74 84 77
13 13 16 19 16 16 13 10 10 6 10 13 6 10 10 10 10 6 6 6 13 6 6 13 10 10 10 6 6 3 3 3 3 3 10 6 10 13 6 55 68 77 77
19 13 16 19 16 13 13 13 13 6 13 10 10 6 10 10 10 13 10 16 13 10 6 10 10 10 10 10 13 13 10 6 6 3 6 6 6 6 10 10 35 55 74
26 23 23 29 19 19 19 13 13 13 3 10 6 10 10 6 16 13 16 16 16 13 10 6 6 6 10 6 6 6 6 3 10 6 3 3 3 6 6 10 10 16 35
26 26 29 32 29 23 23 19 16 19 16 10 10 16 13 13 13 23 13 16 16 13 13 6 10 10 10 10 10 6 3 3 3 10 10 6 6 6 10 10 6 13 13
26 23 26 29 29 29 29 19 23 23 16 16 16 16 26 29 26 26 23 16 16 10 10 13 13 6 13 10 13 10 3 3 3 3 6 6 6 6 6 6 13 10 3
39 32 32 35 35 35 26 29 32 29 16 16 19 19 29 35 35 29 23 16 23 19 16 13 16 13 10 13 13 6 3 10 3 3 3 3 6 6 3 6 10 10 6
35 35 35 39 35 39 32 23 29 26 23 16 23 19 29 32 35 35 29 26 26 29 23 19 16 19 19 19 19 13 10 6 6 6 3 3 3 6 10 6 10 10 10
39 48 39 39 35 39 39 29 29 29 23 26 19 19 35 39 39 35 39 32 29 35 29 23 23 26 26 26 19 13 10 6 6 6 6 3 3 3 6 6 6 10 10